sat.trackr.live / text

‹ back to catalog

CHUANGXIN 1-03 (CX-1-03)

NORAD 37930 · 2011-068A

PAYLOAD ACTIVE UNKNOWN

§ Identity

Operator
Country
PRC
Launch date
2011-11-20
Launch site
JSC
Launch vehicle
Mass (kg)
RCS (m²)
0.62

External: N2YO · Heavens-Above · Gunter

§ Orbital elements

Epoch: 2026-05-25T03:59:31.441632Z

Period
100.66 min
Inclination
98.6996°
Eccentricity
0.0014824
Mean motion
14.30532807 rev/d
Perigee alt
779.3 km
Apogee alt
800.6 km
Semi-major
7,168.1 km
B*
7.4177e-5
RAAN
162.7535°
Arg perigee
179.4894°
Mean anomaly
268.1610°
Rev number
75,736

§ Raw data

CHUANGXIN 1-03 (CX-1-03)1 37930U 11068A   26145.16633613  .00000149  00000+0  74177-4 0  99982 37930  98.6996 162.7535 0014824 179.4894 268.1610 14.30532807757366

JSON: /api/v1/satellites/37930 · /tle

For live sub-satellite position, see the globe view (requires WebGL).

§ Visibility from observer

Set your observer location to see the next 7 days of passes ≥ 10°. The values pass through the URL so the page stays shareable.

No JS? Fill the form by hand. The geolocation button needs JavaScript.